Location: São Paulo
(23.5507°S, 46.6334°W)
Time: 13:28:37
(UTC-03:00)

Tiros 1 - Pass Details

Date: 16 February 2026
Orbit: 618 x 649 km, 48.4° (Epoch: 11 March)

Event Time Altitude Azimuth Distance (km) Brightness Sun altitude
Rises 05:56:34 0° 247° (WSW) 2,969 10.1 -0.5°
Reaches altitude 10° 05:59:40 10° 268° (W) 2,047 9.1 0.2°
Maximum altitude 06:02:38 17° 307° (NW) 1,643 8.7 0.8°
Drops below altitude 10° 06:05:34 10° 346° (NNW) 2,024 9.5 1.5°
Sets 06:08:37 0° 7° (N) 2,918 10.5 2.2°
